Regional Weather Roundup
Issued by NWS

Home | Current Version | Previous Version | Graphics & Text | Print | Product List | Glossary On
Versions: 1 2 3 4 5 6 7 8 9 10 11 12 13 14 15 16 17 18 19 20 21 22 23 24 25 26 27 28 29 30 31 32 33 34 35 36 37 38 39 40 41 42 43 44 45 46 47 48 49 50
000
ASUS43 KLSX 081057
RWRMO

WEATHER SUMMARY FOR MISSOURI
NATIONAL WEATHER SERVICE SPRINGFIELD MO
500 AM CST MON FEB 08 2016

NOTE: "FAIR" INDICATES FEW OR NO CLOUDS BELOW 12,000 FEET WITH NO
       SIGNIFICANT WEATHER AND/OR OBSTRUCTIONS TO VISIBILITY.
       CURRENT SKY AND/OR WEATHER CONDITIONS ARE NOT AVAILABLE FOR
       CHILLICOTHE AND FARMINGTON.

MOZ001>031-035>038-043-044-053-054-081200-
...NORTHERN AND WESTERN MISSOURI...

CITY           SKY/WX    TMP DP  RH WIND       PRES   REMARKS
KANSAS CTY INT FLURRIES  33  22  63 NW16G22   29.97S WCI  23
LEE`S SUMMIT   CLOUDY    34  20  56 NW17G33   29.96F WCI  23
ST JOSEPH      CLOUDY    33  18  53 NW31G44   29.99R WCI  19
CHILLICOTHE      N/A     30  17  58 NW21G39   29.93S WCI  17

$$
MOZ066>068-077>081-088>096-101>105-081200-
...SOUTHWEST MISSOURI...

CITY           SKY/WX    TMP DP  RH WIND       PRES   REMARKS
SPRINGFIELD    CLOUDY    34  21  59 NW18G26   29.96S WCI  23
JOPLIN         CLOUDY    36  20  52 W17       30.05F WCI  26

$$
MOZ032>034-039>042-045>050-055>058-069>072-081200-
...CENTRAL MISSOURI...

CITY           SKY/WX    TMP DP  RH WIND       PRES   REMARKS
COLUMBIA       NOT AVBL
JEFFERSON CITY LGT SNOW  31  26  82 NW18G25   29.89S WCI  19
ROLLA          LGT SNOW  30  28  92 W18G24    29.83S FOG     WCI  18
SEDALIA        CLOUDY    32  21  64 NW22G33   29.94R WCI  19
WHITEMAN AFB   FLURRIES  32  19  59 NW14G31   29.94R WCI  22

$$
MOZ051-052-059>065-081200-
...EAST CENTRAL MISSOURI...

CITY           SKY/WX    TMP DP  RH WIND       PRES   REMARKS
ST LOUIS INTL  CLOUDY    37  22  54 NW16G23   29.79R WCI  28

$$
MOZ072>076-082>087-097>100-106>115-081200-
...SOUTH CENTRAL AND SOUTHEAST MISSOURI...

CITY           SKY/WX    TMP DP  RH WIND       PRES   REMARKS
CAPE GIRARDEAU MOCLDY    32  26  78 W9        29.82F WCI  24
POPLAR BLUFF   CLOUDY    41  24  51 W9        29.85S
WEST PLAINS    MOCLDY    37  23  56 W20G32    29.87F WCI  27

$$


USA.gov is the U.S. government's official web portal to all federal, state and local government web resources and services.